a3-freunde - Die Audi A3 Community

Allgemeine Fragen (8L)


Titel Antworten Hits Letzter Beitrag
[8L] Was kann "Gemisch zu mager" alles bedeuten? 12 8.376 17.10.2017 13:56
[8L] Blockieren beim vor und zurückfahren 0 723 17.10.2017 13:49
[8L] "Ruckeln" als Folge eines Unfallsschadens? 0 217 17.10.2017 10:48
[8L] Schliesszylinder Fahrertür austauschen 5 675 16.10.2017 17:01
[8L] Standlicht rechts vorn und hinten ohne Funktion 2 202 16.10.2017 9:39
[8L] startet nur beim Überbrücken der Benzinpumpe 4 304 15.10.2017 19:26
[8L] Kann A3 nicht mehr starten..? 5 219 15.10.2017 0:00
[8L] Tür ausbauen 18 7.776 13.10.2017 20:22
[8L] Ersatz-Halter für PDC-Sensor? 3 260 12.10.2017 9:23
[8L] Türdichtung entfernen - Wie? 14 794 12.10.2017 6:01
[8L] Kein Wheelspin beim 1.8 T? 9 794 11.10.2017 16:37
[8L] A3 8L Ladedruck/ Tachi Problem? 0 190 10.10.2017 18:32
[8L] Ölschraube undicht 5 416 10.10.2017 11:05
[8L] 1 Liter Ölverbrauch auf 600 Kilometer 3 423 9.10.2017 20:49
[8L] Motorsteuergerät defekt? 7 400 9.10.2017 15:13
[8L] Bei Vollgas Drehzahl geht sehr hoch Geschwindigkeit minimal? 6 429 9.10.2017 13:06
[8L] Tacho Beleuchtung defekt Wackelkontakt Nadel nicht beleuchtet 1 341 7.10.2017 18:50
[8L] Alle Motorlager/Getriebelager Wechseln 5 335 6.10.2017 22:38
[8L] Fehlersuche mkl und esp 10 334 5.10.2017 20:32
Original-Audi-Bremsscheiben. Welche Marke steckt dahinter? 10 13.706 3.10.2017 22:48
[8L] Unterschiedlicher Öffnungswinkel der Heckklappe A3 - S3 ? 2 272 3.10.2017 19:00
[8L] Fuse am Tageskilometer Zähler 2 272 3.10.2017 18:08
[8L] Was ist das für eine Flüssigkeit? 6 380 3.10.2017 12:39
[8L] Was für Teile sind das (Heckklappe? 1 400 3.10.2017 7:31
[8L] Passen Golf IV Sitze ? 13 5.888 2.10.2017 14:48
[8L] Scheinwerfer Umbau vfl auf fl 4 324 1.10.2017 13:24
[8L] Umbau von VFL auf FL Heckklappe, ist das überhaupt möglich? 14 676 28.9.2017 23:14
[8L] Kindersitz mit guter Qualität gesucht 10 1.546 28.9.2017 16:24
[8L] Kühlwasser Temperatur hoch 3 324 26.9.2017 16:57
[8L] Motortemp.geht hoch Schlauch kalt 11 3.635 26.9.2017 7:22


© a3-freunde.de 2003-2016
64.129 Mitglieder    184 online